TimeCEST,TemperatureF,Dew PointF,Humidity,Sea Level PressureIn,VisibilityMPH,Wind Direction,Wind SpeedMPH,Gust SpeedMPH,PrecipitationIn,Events,Conditions,WindDirDegrees,DateUTC
12:55 AM,64.4,64.4,100,30.15,-9999.0,WNW,4.6,-,N/A,,Clear,300,2013-10-08 22:55:00
2:00 AM,64,64,100,30.16,6,WNW,4.6,,,,Partly Cloudy,300,2013-10-09 00:00:00
2:55 AM,62.6,62.6,100,30.15,6.2,WNW,4.6,-,N/A,,Scattered Clouds,290,2013-10-09 00:55:00
3:55 AM,62.6,62.6,100,30.15,6.2,West,4.6,-,N/A,,Scattered Clouds,280,2013-10-09 01:55:00
4:55 AM,60.8,60.8,100,30.12,-9999.0,West,4.6,-,N/A,,Clear,270,2013-10-09 02:55:00
5:00 AM,62,62,98,30.14,6,West,4.6,,,,Partly Cloudy,270,2013-10-09 03:00:00
5:55 AM,60.8,60.8,100,30.12,-9999.0,WSW,4.6,-,N/A,,Clear,250,2013-10-09 03:55:00
6:55 AM,60.8,60.8,100,30.12,6.2,West,4.6,-,N/A,,Mostly Cloudy,270,2013-10-09 04:55:00
7:55 AM,62.6,62.6,100,30.12,6.2,West,3.5,-,N/A,,Partly Cloudy,270,2013-10-09 05:55:00
8:00 AM,62,62,100,30.14,6,West,3.5,,,,Scattered Clouds,270,2013-10-09 06:00:00
8:55 AM,68.0,66.2,94,30.12,-9999.0,WNW,4.6,-,N/A,,Clear,290,2013-10-09 06:55:00
9:55 AM,73.4,69.8,88,30.15,-9999.0,West,6.9,-,N/A,,Clear,270,2013-10-09 07:55:00
10:55 AM,77.0,66.2,69,30.12,-9999.0,SW,3.5,-,N/A,,Clear,220,2013-10-09 08:55:00
11:00 AM,77,67,63,30.14,6,SW,3.5,,,,,220,2013-10-09 09:00:00
11:55 AM,78.8,68.0,69,30.12,-9999.0,WSW,3.5,-,N/A,,Clear,250,2013-10-09 09:55:00
12:55 PM,80.6,55.4,42,30.09,-9999.0,NNW,2.3,-,N/A,,Clear,340,2013-10-09 10:55:00
1:55 PM,77.0,50.0,39,30.06,6.2,South,8.1,-,N/A,,Scattered Clouds,170,2013-10-09 11:55:00
2:00 PM,77,51,29,30.07,6,South,8.1,,,,Scattered Clouds,170,2013-10-09 12:00:00
2:55 PM,82.4,55.4,39,30.04,6.2,SSW,3.5,-,N/A,,Scattered Clouds,210,2013-10-09 12:55:00
3:55 PM,82.4,57.2,42,30.04,6.2,West,11.5,-,N/A,,Scattered Clouds,270,2013-10-09 13:55:00
4:55 PM,82.4,57.2,42,30.04,6.2,WSW,8.1,-,N/A,,Scattered Clouds,250,2013-10-09 14:55:00
5:00 PM,82,57,31,30.04,6,WSW,8.1,,,,Partly Cloudy,250,2013-10-09 15:00:00
5:55 PM,77.0,68.0,74,30.04,6.2,NE,12.7,-,N/A,,Scattered Clouds,40,2013-10-09 15:55:00
6:55 PM,73.4,73.4,100,30.04,6.2,ENE,5.8,-,N/A,,Scattered Clouds,60,2013-10-09 16:55:00
7:55 PM,73.4,73.4,100,30.06,6.2,NNE,4.6,-,N/A,,Partly Cloudy,20,2013-10-09 17:55:00
8:00 PM,74,74,100,30.07,6,NNE,4.6,,,,Scattered Clouds,20,2013-10-09 18:00:00
8:55 PM,69.8,69.8,100,30.06,6.2,NE,3.5,-,N/A,,Partly Cloudy,40,2013-10-09 18:55:00
9:55 PM,68.0,68.0,100,30.06,6.2,South,2.3,-,N/A,,Partly Cloudy,190,2013-10-09 19:55:00
10:55 PM,66.2,66.2,100,30.06,6.2,West,3.5,-,N/A,,Partly Cloudy,280,2013-10-09 20:55:00
11:00 PM,66,66,99,30.08,6,West,3.5,,,,Scattered Clouds,280,2013-10-09 21:00:00
11:55 PM,64.4,64.4,100,30.06,6.2,NNW,3.5,-,N/A,,Partly Cloudy,340,2013-10-09 21:55:00